Location: Newark
(40.9833°N, 0.0333°W)
Time: 03:07:17
(UTC+00:00)

Transit 2A Rocket - Pass Details

Date: 30 October 2020
Orbit: 588 x 914 km, 66.7° (Epoch: 26 November)

Event Time Altitude Azimuth Distance (km) Brightness Sun altitude
Rises 09:18:48 0° 217° (SW) 3,531 8.6 25.6°
Reaches altitude 10° 09:21:21 10° 220° (SW) 2,597 8.0 25.9°
Maximum altitude 09:27:25 66° 302° (WNW) 983 5.7 26.6°
Drops below altitude 10° 09:33:19 10° 25° (NNE) 2,527 7.5 27.3°
Sets 09:35:46 0° 28° (NNE) 3,431 8.1 27.6°
